Regional Weather Roundup
Issued by NWS

Current Version | Previous Version | Text Only | Print | Product List | Glossary On
Versions: 1 2 3 4 5 6 7 8 9 10 11 12 13 14 15 16 17 18 19 20 21 22 23 24 25 26 27 28 29 30 31 32 33 34 35 36 37 38 39 40 41 42 43 44 45 46 47 48 49 50
000
ASMX46 KSGX 011010
RWRMX

MEXICAN WEATHER ROUNDUP
NATIONAL WEATHER SERVICE SAN DIEGO CA
300 AM PDT FRI AUG 01 2014

BAJA CALIFORNIA

CITY           SKY/WX    TMP DP  RH WIND       PRES   REMARKS
ENSENADA NW      N/A     68  32  26 W9        29.88F
TIJUANA        CLOUDY    68  61  77 N3        29.94F

NORTHWESTERN MEXICO

CITY           SKY/WX    TMP DP  RH WIND       PRES   REMARKS

NORTHEASTERN MEXICO

CITY           SKY/WX    TMP DP  RH WIND       PRES   REMARKS
MONTERREY      CLEAR     75  68  78 CALM      29.92F
NUEVO LAREDO   CLEAR     82  72  69 SE7       29.91
REYNOSA        CLEAR     79  72  78 SE7       29.90
VICTORIA       CLEAR     77  72  83 SE12      29.93

WESTERN MEXICO

CITY           SKY/WX    TMP DP  RH WIND       PRES   REMARKS
DURANGO        MOCLDY    59  52  77 W5        30.24
GUADALAJARA    MOCLDY    61  59  94 W2        30.20
MAZATLAN       CLOUDY    77  70  78 N8        29.87S THUNDER
PTO. VALLARTA  MOCLDY    81  77  89 CALM      29.89F
ZACATECAS      PTCLDY    57  46  67 CALM      30.31F

CENTRAL MEXICO

CITY           SKY/WX    TMP DP  RH WIND       PRES   REMARKS
LEON           CLOUDY    61  59  94 CALM      30.29F
MEXICO CITY    PTCLDY    61  50  67 SW6       30.34S
MORELIA        MOCLDY    59  57  94 CALM      30.24
QUERETARO      MOCLDY    57  55  94 CALM      30.31F
S. LUIS POTOSI CLEAR     57  55  94 NW7       30.26S
TOLUCA         PTCLDY    50  45  81 CALM      30.42S

SOUTHERN MEXICO

CITY           SKY/WX    TMP DP  RH WIND       PRES   REMARKS
ACAPULCO       PTCLDY    81  75  83 CALM      29.88F
TAPACHULA      MOCLDY    79  75  89 CALM      29.88F
VILLAHERMOSA   CLEAR     79  75  89 CALM      29.92

YUCATAN PENINSULA

CITY           SKY/WX    TMP DP  RH WIND       PRES   REMARKS
CANCUN         CLEAR     73  72  94 CALM      29.93S
COZUMEL        CLEAR     70  70 100 CALM      29.93S
MERIDA         CLEAR     73  70  88 E7        29.94S

$$



USA.gov is the U.S. government's official web portal to all federal, state and local government web resources and services.